Location: Bucquoy
(50.1391°N, 2.7097°E)
Time: 23:48:58
(UTC+00:00)

RESURS DK-1 - Pass Details

Date: 06 May 2021
Orbit: 553 x 564 km, 69.9° (Epoch: 21 June)

Event Time Altitude Azimuth Distance (km) Brightness Sun altitude
Rises 02:24:11 0° 312° (NW) 2,764 5.9 -14.7°
Reaches altitude 10° 02:27:33 10° 283° (WNW) 1,862 4.8 -14.4°
Enters shadow 02:28:29 12° 271° (W) 1,738 4.5 -14.3°
